Hourly Data Report for September 07, 2017

All times are specified in Local Standard Time (LST). Add 1 hour to adjust for Daylight Saving Time where and when it is observed.

ARVIAT A
NUNAVUT

61°05'38.000" N
94°04'18.000" W
10.40 m
2300427
71174
YEK

Download Data

Hourly Data (September 2017)
Hourly Data Report for September 7, 2017
Temp Definition
°C
Dew Point Temp Definition
°C
Rel Hum Definition
%
Wind Dir Definition
10's deg

Wind Spd Definition
km/h
Visibility Definition
km
Stn Press Definition
kPa
Hmdx Definition


Wind Chill Definition


Weather Definition


TIME
00:00 Legend Double Dagger 5.8 4.1 89 16 15 16.1 101.81     LegendNANA
01:00 Legend Double Dagger 5.5 3.8 89 17 15 16.1 101.83     LegendNANA
02:00 Legend Double Dagger 6.0 4.3 89 16 15 16.1 101.85     LegendNANA
03:00 Legend Double Dagger 5.6 3.9 89 17 15 16.1 101.86     LegendNANA
04:00 Legend Double Dagger 5.6 4.1 90 16 18 16.1 101.86     LegendNANA
05:00 Legend Double Dagger 5.8 4.5 91 18 17 16.1 101.88     LegendNANA
06:00 Legend Double Dagger 5.7 4.0 89 17 22 16.1 101.85     LegendNANA
07:00 Legend Double Dagger 5.9 4.4 90 18 22 16.1 101.84     LegendNANA
08:00 Legend Double Dagger 6.8 5.1 89 17 26 16.1 101.80     LegendNANA
09:00 Legend Double Dagger 7.0 5.3 89 17 28 16.1 101.79     LegendNANA
10:00 Legend Double Dagger 7.1 5.4 89 16 30 16.1 101.71     LegendNANA
11:00 Legend Double Dagger 7.7 5.7 87 17 35 16.1 101.67     LegendNANA
12:00 Legend Double Dagger 8.0 5.9 86 17 39 16.1 101.59     LegendNANA
13:00 Legend Double Dagger 8.1 6.5 90 18 39 16.1 101.49     LegendNANA
14:00 Legend Double Dagger 7.8 6.7 93 18 37 16.1 101.43     LegendNANA
15:00 Legend Double Dagger 8.3 6.9 91 18 37 16.1 101.33     LegendNANA
16:00 Legend Double Dagger 8.5 7.0 90 19 35 16.1 101.24     LegendNANA
17:00 Legend Double Dagger 8.5 7.1 91 18 32 16.1 101.16     LegendNANA
18:00 Legend Double Dagger 8.7 7.2 90 19 26 16.1 101.08     LegendNANA
19:00 Legend Double Dagger 9.0 7.5 90 19 24 16.1 100.97     LegendNANA
20:00 Legend Double Dagger 9.0 7.7 91 19 24 16.1 100.89     LegendNANA
21:00 Legend Double Dagger 9.1 8.0 93 19 21 16.1 100.83     LegendNANA
22:00 Legend Double Dagger 9.5 8.6 94 20 21 16.1 100.75     LegendNANA
23:00 Legend Double Dagger 10.3 8.9 91 20 28 16.1 100.63     LegendNANA

Notes on Data Quality.

Legend

  • E = Estimated
  • M = Missing
  • NA = Not Available
  • ‡ = Partner data that is not subject to review by the National Climate Archives
Date modified: